Location: Glencliff
(36.1226°N, 86.7183°W)
Time: 05:44:37
(UTC+00:00)

Cosmos 1536 - Pass Details

Date: 25 August 2019
Orbit: 540 x 559 km, 82.5° (Epoch: 17 September)

Event Time Altitude Azimuth Distance (km) Brightness Sun altitude
Exits shadow 01:51:23 35° 116° (ESE) 904 3.3 -17.0°
Maximum altitude 01:52:03 38° 92° (E) 858 3.3 -17.1°
Drops below altitude 10° 01:55:51 10° 24° (NNE) 1,851 5.6 -17.8°
Sets 01:58:07 0° 16° (NNE) 2,749 6.6 -18.2°
